Starlink 11337

operational
NORAD ID: 61940 Int'l Des: 2024-209 Owner: SPXS Country: US Constellation: starlink
LEOCIRCULAR

Starlink 11337について

説明を読み込み中...

リアルタイム位置

3D地球を読み込み中...

次回通過

高度履歴

Altitude vs Time

uPlot chart will show altitude changes over time

軌道要素

1 61940U 24209B 26095.12462079 .00154247 00000-0 12510-2 0 9994
2 61940 53.1576 240.6649 0003135 75.6096 284.5270 15.69773724 80877
Epoch: Apr 5, 2026 • Age: 11 hours

現在のステータス

高度 361.2 km
速度 7.70 km/s
衛星直下点 38.93°N, 26°W
打ち上げ日 Nov 14, 2024
運用期間 1.3 years
タイプ internet

技術仕様

分類 Payload
質量 960.00 kg
乾燥質量 910.00 kg
総質量 960.00 kg
長さ 0.30 m
直径 4.10 m
スパン 29.00 m
形状 Box + pan
製造者 SPXS
バスタイプ Starlink V2MD
フェーズステータス In Orbit
所有者/国 SPXS/US

大規模コンステレーション

Loading constellations...